DAL3767 KLAS-KLAX

Flight info

Callsign DAL3767
Flight time 0h 37m
Altitude 28000
Route RADYR2 BLAQQ SHTNR ANJLL4
Aircraft A321/M-SDE3FGHIRWY/LB1

Departure

Time 2026-05-07 06:33
Airport Harry Reid International Airport (KLAS)

Arrival

Time 2026-05-07 07:10
Airport Los Angeles International Airport (KLAX)
Time Latitude Longitude Altitude Speed Heading
2026-05-07 05:41 36.08061 -115.14061 2094 ft 0 kts 125°
2026-05-07 06:20 36.08064 -115.14067 2075 ft 4 kts 125°
2026-05-07 06:20 36.08080 -115.14095 2094 ft 4 kts 125°
2026-05-07 06:20 36.08095 -115.14122 2094 ft 4 kts 125°
2026-05-07 06:21 36.08107 -115.14144 2095 ft 4 kts 130°
2026-05-07 06:21 36.08127 -115.14159 2095 ft 3 kts 179°
2026-05-07 06:21 36.08149 -115.14159 2095 ft 2 kts 180°
2026-05-07 06:21 36.08150 -115.14159 2095 ft 0 kts 180°
2026-05-07 06:23 36.08133 -115.14159 2095 ft 7 kts 180°
2026-05-07 06:24 36.08083 -115.14159 2095 ft 7 kts 180°
2026-05-07 06:24 36.08035 -115.14159 2095 ft 7 kts 179°
2026-05-07 06:24 36.07991 -115.14158 2095 ft 6 kts 179°
2026-05-07 06:24 36.07948 -115.14158 2095 ft 8 kts 180°
2026-05-07 06:25 36.07885 -115.14159 2095 ft 9 kts 180°
2026-05-07 06:25 36.07833 -115.14137 2094 ft 8 kts 130°
2026-05-07 06:25 36.07826 -115.14055 2094 ft 10 kts 89°
2026-05-07 06:25 36.07826 -115.13995 2093 ft 10 kts 90°
2026-05-07 06:26 36.07826 -115.13910 2093 ft 10 kts 90°
2026-05-07 06:26 36.07827 -115.13828 2093 ft 9 kts 90°
2026-05-07 06:26 36.07827 -115.13746 2093 ft 11 kts 90°
2026-05-07 06:26 36.07827 -115.13637 2092 ft 14 kts 90°
2026-05-07 06:27 36.07827 -115.13522 2091 ft 13 kts 90°
2026-05-07 06:27 36.07827 -115.13406 2090 ft 14 kts 90°
2026-05-07 06:27 36.07827 -115.13284 2088 ft 15 kts 90°
2026-05-07 06:27 36.07828 -115.13150 2084 ft 17 kts 90°
2026-05-07 06:28 36.07828 -115.12993 2074 ft 20 kts 90°
2026-05-07 06:28 36.07827 -115.12815 2070 ft 18 kts 90°
2026-05-07 06:28 36.07828 -115.12657 2064 ft 16 kts 90°
2026-05-07 06:28 36.07828 -115.12527 2060 ft 16 kts 90°
2026-05-07 06:29 36.07828 -115.12401 2057 ft 10 kts 90°
2026-05-07 06:29 36.07828 -115.12306 2054 ft 10 kts 90°
2026-05-07 06:29 36.07815 -115.12246 2053 ft 8 kts 123°
2026-05-07 06:29 36.07775 -115.12187 2050 ft 9 kts 130°
2026-05-07 06:30 36.07755 -115.12157 2049 ft 0 kts 129°
2026-05-07 06:30 36.07748 -115.12146 2049 ft 3 kts 130°
2026-05-07 06:30 36.07745 -115.12142 2049 ft 0 kts 133°
2026-05-07 06:31 36.07744 -115.12142 2049 ft 0 kts 133°
2026-05-07 06:31 36.07732 -115.12130 2048 ft 7 kts 148°
2026-05-07 06:31 36.07673 -115.12122 2053 ft 9 kts 180°
2026-05-07 06:31 36.07640 -115.12146 2052 ft 3 kts 264°
2026-05-07 06:32 36.07642 -115.12219 2050 ft 27 kts 270°
2026-05-07 06:32 36.07641 -115.12750 2069 ft 93 kts 270°
2026-05-07 06:32 36.07638 -115.13781 2093 ft 144 kts 269°
2026-05-07 06:32 36.07640 -115.15184 2137 ft 179 kts 269°
2026-05-07 06:33 36.07641 -115.16716 2733 ft 177 kts 268°
2026-05-07 06:33 36.07637 -115.18228 3367 ft 176 kts 270°
2026-05-07 06:33 36.07632 -115.19739 3915 ft 177 kts 269°
2026-05-07 06:33 36.07550 -115.21270 4423 ft 180 kts 258°
2026-05-07 06:34 36.07191 -115.22773 4890 ft 186 kts 255°
2026-05-07 06:34 36.06861 -115.24328 5232 ft 195 kts 252°
2026-05-07 06:34 36.06142 -115.25843 5438 ft 214 kts 226°
2026-05-07 06:34 36.04822 -115.26839 5577 ft 233 kts 202°
2026-05-07 06:35 36.03268 -115.27587 5695 ft 256 kts 201°
2026-05-07 06:35 36.01513 -115.28389 6041 ft 278 kts 200°
2026-05-07 06:35 35.99648 -115.29225 6750 ft 284 kts 198°
2026-05-07 06:35 35.97738 -115.29783 7485 ft 288 kts 191°
2026-05-07 06:36 35.95757 -115.30257 8276 ft 292 kts 191°
2026-05-07 06:36 35.93742 -115.30744 9067 ft 297 kts 191°
2026-05-07 06:36 35.91703 -115.31240 9867 ft 301 kts 191°
2026-05-07 06:36 35.89619 -115.31749 10436 ft 314 kts 191°
2026-05-07 06:37 35.87392 -115.32294 10660 ft 338 kts 191°
2026-05-07 06:37 35.85011 -115.32877 10845 ft 362 kts 191°
2026-05-07 06:37 35.82454 -115.33504 11166 ft 387 kts 191°
2026-05-07 06:37 35.79747 -115.34172 11717 ft 403 kts 191°
2026-05-07 06:38 35.76973 -115.34854 12564 ft 410 kts 191°
2026-05-07 06:38 35.74151 -115.35548 13467 ft 416 kts 191°
2026-05-07 06:38 35.71296 -115.36248 14269 ft 421 kts 191°
2026-05-07 06:38 35.68406 -115.36956 14816 ft 425 kts 191°
2026-05-07 06:39 35.65496 -115.37668 15360 ft 429 kts 190°
2026-05-07 06:39 35.62553 -115.38368 15905 ft 432 kts 188°
2026-05-07 06:39 35.59550 -115.38656 16440 ft 434 kts 178°
2026-05-07 06:39 35.56530 -115.38462 16982 ft 437 kts 174°
2026-05-07 06:40 35.53479 -115.38229 17531 ft 440 kts 174°
2026-05-07 06:40 35.50412 -115.38004 18064 ft 444 kts 174°
2026-05-07 06:40 35.47307 -115.37928 18564 ft 449 kts 181°
2026-05-07 06:40 35.44197 -115.38454 19007 ft 454 kts 191°
2026-05-07 06:41 35.41167 -115.39612 19477 ft 459 kts 201°
2026-05-07 06:41 35.38288 -115.41330 19933 ft 462 kts 207°
2026-05-07 06:41 35.35435 -115.43167 20384 ft 466 kts 207°
2026-05-07 06:41 35.32548 -115.45014 20837 ft 469 kts 207°
2026-05-07 06:42 35.29646 -115.46860 21284 ft 472 kts 207°
2026-05-07 06:42 35.26722 -115.48716 21718 ft 475 kts 207°
2026-05-07 06:42 35.23781 -115.50581 22155 ft 478 kts 207°
2026-05-07 06:42 35.20866 -115.52434 22585 ft 480 kts 207°
2026-05-07 06:43 35.17900 -115.54323 23009 ft 483 kts 207°
2026-05-07 06:43 35.14919 -115.56262 23424 ft 486 kts 210°
2026-05-07 06:43 35.12116 -115.58601 23800 ft 490 kts 218°
2026-05-07 06:43 35.09608 -115.61422 24170 ft 491 kts 226°
2026-05-07 06:44 35.07253 -115.64458 24508 ft 493 kts 227°
2026-05-07 06:44 35.04887 -115.67498 24831 ft 496 kts 227°
2026-05-07 06:44 35.02500 -115.70555 25169 ft 498 kts 226°
2026-05-07 06:44 35.00102 -115.73616 25521 ft 501 kts 226°
2026-05-07 06:45 34.97690 -115.76687 25845 ft 503 kts 226°
2026-05-07 06:45 34.95258 -115.79776 26180 ft 505 kts 226°
2026-05-07 06:45 34.92823 -115.82870 26491 ft 507 kts 226°
2026-05-07 06:45 34.90385 -115.85968 26921 ft 506 kts 226°
2026-05-07 06:46 34.87957 -115.89052 27366 ft 504 kts 226°
2026-05-07 06:46 34.85527 -115.92135 27797 ft 504 kts 226°
2026-05-07 06:46 34.83101 -115.95213 27994 ft 504 kts 226°
2026-05-07 06:46 34.80687 -115.98270 28038 ft 500 kts 226°
2026-05-07 06:47 34.75873 -116.04363 28033 ft 499 kts 227°
2026-05-07 06:47 34.71072 -116.10467 28033 ft 499 kts 227°
2026-05-07 06:48 34.66283 -116.16572 28035 ft 499 kts 227°
2026-05-07 06:48 34.61484 -116.22672 28034 ft 499 kts 227°
2026-05-07 06:49 34.56714 -116.28723 28020 ft 499 kts 227°
2026-05-07 06:49 34.51909 -116.34799 28023 ft 499 kts 227°
2026-05-07 06:50 34.47104 -116.40862 28029 ft 499 kts 227°
2026-05-07 06:50 34.42385 -116.47038 27786 ft 499 kts 234°
2026-05-07 06:51 34.40504 -116.50563 27533 ft 497 kts 244°
2026-05-07 06:51 34.38961 -116.54317 27280 ft 497 kts 246°
2026-05-07 06:51 34.37430 -116.58067 27019 ft 497 kts 246°
2026-05-07 06:51 34.35901 -116.61781 26763 ft 486 kts 245°
2026-05-07 06:52 34.34407 -116.65382 26518 ft 472 kts 245°
2026-05-07 06:52 34.32952 -116.68881 26272 ft 459 kts 246°
2026-05-07 06:52 34.31555 -116.72295 26030 ft 447 kts 246°
2026-05-07 06:52 34.30205 -116.75653 25795 ft 441 kts 246°
2026-05-07 06:53 34.28875 -116.78988 25560 ft 439 kts 246°
2026-05-07 06:53 34.27555 -116.82304 25128 ft 437 kts 246°
2026-05-07 06:53 34.26238 -116.85602 24566 ft 435 kts 246°
2026-05-07 06:53 34.24922 -116.88888 24025 ft 432 kts 246°
2026-05-07 06:54 34.23613 -116.92132 23518 ft 428 kts 246°
2026-05-07 06:54 34.22302 -116.95360 22943 ft 425 kts 246°
2026-05-07 06:54 34.21061 -116.98585 22322 ft 421 kts 251°
2026-05-07 06:54 34.20142 -117.01906 21814 ft 415 kts 255°
2026-05-07 06:55 34.19259 -117.05200 21279 ft 411 kts 254°
2026-05-07 06:55 34.18388 -117.08428 20771 ft 407 kts 254°
2026-05-07 06:55 34.17511 -117.11666 20257 ft 405 kts 254°
2026-05-07 06:55 34.16635 -117.14884 19740 ft 402 kts 254°
2026-05-07 06:56 34.15759 -117.18086 19209 ft 400 kts 253°
2026-05-07 06:56 34.14888 -117.21254 18769 ft 397 kts 253°
2026-05-07 06:56 34.14019 -117.24405 18238 ft 395 kts 253°
2026-05-07 06:56 34.13151 -117.27554 17638 ft 394 kts 253°
2026-05-07 06:57 34.12289 -117.30669 17160 ft 390 kts 253°
2026-05-07 06:57 34.11427 -117.33770 16678 ft 387 kts 253°
2026-05-07 06:57 34.10573 -117.36849 16160 ft 386 kts 253°
2026-05-07 06:57 34.09762 -117.39879 15958 ft 374 kts 254°
2026-05-07 06:58 34.09009 -117.42856 15462 ft 369 kts 255°
2026-05-07 06:58 34.08281 -117.45811 14907 ft 366 kts 255°
2026-05-07 06:58 34.07565 -117.48748 14367 ft 363 kts 254°
2026-05-07 06:58 34.06853 -117.51649 13828 ft 360 kts 254°
2026-05-07 06:59 34.06132 -117.54535 13377 ft 358 kts 253°
2026-05-07 06:59 34.05403 -117.57400 12919 ft 356 kts 253°
2026-05-07 06:59 34.04676 -117.60240 12475 ft 353 kts 253°
2026-05-07 06:59 34.03963 -117.63008 11858 ft 349 kts 253°
2026-05-07 07:00 34.03236 -117.65829 11226 ft 346 kts 253°
2026-05-07 07:00 34.02533 -117.68558 10676 ft 346 kts 254°
2026-05-07 07:00 34.02052 -117.71402 10424 ft 336 kts 265°
2026-05-07 07:00 34.01800 -117.74108 10286 ft 324 kts 265°
2026-05-07 07:01 34.01540 -117.76775 10031 ft 318 kts 265°
2026-05-07 07:01 34.01281 -117.79402 9791 ft 310 kts 265°
2026-05-07 07:01 34.01032 -117.81920 9660 ft 295 kts 265°
2026-05-07 07:01 34.00794 -117.84321 9318 ft 286 kts 265°
2026-05-07 07:02 34.00560 -117.86712 8547 ft 289 kts 264°
2026-05-07 07:02 34.00326 -117.89107 8001 ft 283 kts 264°
2026-05-07 07:02 34.00099 -117.91413 7625 ft 272 kts 264°
2026-05-07 07:02 33.99881 -117.93620 7300 ft 258 kts 264°
2026-05-07 07:03 33.99672 -117.95751 6988 ft 255 kts 264°
2026-05-07 07:03 33.99464 -117.97869 6696 ft 251 kts 264°
2026-05-07 07:03 33.99261 -117.99931 6358 ft 246 kts 264°
2026-05-07 07:03 33.99060 -118.01952 6041 ft 239 kts 264°
2026-05-07 07:04 33.98864 -118.03914 5746 ft 233 kts 264°
2026-05-07 07:04 33.98673 -118.05828 5458 ft 227 kts 264°
2026-05-07 07:04 33.98486 -118.07695 5187 ft 221 kts 265°
2026-05-07 07:04 33.98304 -118.09489 5012 ft 212 kts 265°
2026-05-07 07:05 33.98129 -118.11239 4766 ft 208 kts 265°
2026-05-07 07:05 33.97959 -118.12949 4504 ft 204 kts 265°
2026-05-07 07:05 33.97791 -118.14631 4248 ft 199 kts 264°
2026-05-07 07:05 33.97628 -118.16253 3991 ft 192 kts 264°
2026-05-07 07:06 33.97470 -118.17842 3762 ft 190 kts 264°
2026-05-07 07:06 33.97311 -118.19420 3508 ft 190 kts 263°
2026-05-07 07:06 33.97154 -118.20991 3263 ft 189 kts 263°
2026-05-07 07:06 33.96996 -118.22559 3013 ft 188 kts 263°
2026-05-07 07:07 33.96839 -118.24125 2765 ft 189 kts 263°
2026-05-07 07:07 33.96680 -118.25695 2514 ft 189 kts 263°
2026-05-07 07:07 33.96522 -118.27269 2263 ft 189 kts 263°
2026-05-07 07:07 33.96368 -118.28793 2017 ft 176 kts 263°
2026-05-07 07:08 33.96226 -118.30195 1798 ft 164 kts 263°
2026-05-07 07:08 33.96092 -118.31520 1587 ft 153 kts 263°
2026-05-07 07:08 33.95966 -118.32762 1379 ft 147 kts 263°
2026-05-07 07:08 33.95844 -118.33962 1184 ft 143 kts 262°
2026-05-07 07:09 33.95724 -118.35147 999 ft 141 kts 262°
2026-05-07 07:09 33.95606 -118.36304 803 ft 138 kts 262°
2026-05-07 07:09 33.95490 -118.37440 627 ft 136 kts 263°
2026-05-07 07:09 33.95376 -118.38560 433 ft 134 kts 263°
2026-05-07 07:10 33.95266 -118.39657 250 ft 133 kts 263°
2026-05-07 07:10 33.95154 -118.40752 98 ft 126 kts 263°
2026-05-07 07:10 33.95064 -118.41628 94 ft 77 kts 263°
2026-05-07 07:10 33.95015 -118.42048 95 ft 30 kts 255°
2026-05-07 07:11 33.94917 -118.42223 96 ft 12 kts 220°
2026-05-07 07:11 33.94840 -118.42281 96 ft 15 kts 202°
2026-05-07 07:11 33.94739 -118.42279 95 ft 13 kts 169°
2026-05-07 07:11 33.94684 -118.42225 95 ft 11 kts 91°
2026-05-07 07:12 33.94691 -118.42137 97 ft 10 kts 82°
2026-05-07 07:12 33.94700 -118.42052 94 ft 10 kts 82°
2026-05-07 07:12 33.94709 -118.41969 94 ft 10 kts 83°
2026-05-07 07:12 33.94716 -118.41888 93 ft 10 kts 84°
2026-05-07 07:13 33.94724 -118.41808 93 ft 10 kts 82°
2026-05-07 07:13 33.94733 -118.41720 94 ft 10 kts 82°
2026-05-07 07:13 33.94743 -118.41634 94 ft 11 kts 83°
2026-05-07 07:13 33.94753 -118.41533 94 ft 12 kts 83°
2026-05-07 07:14 33.94763 -118.41437 96 ft 11 kts 80°
2026-05-07 07:14 33.94785 -118.41349 94 ft 11 kts 74°
2026-05-07 07:14 33.94794 -118.41263 94 ft 10 kts 84°
2026-05-07 07:14 33.94803 -118.41179 98 ft 10 kts 82°
2026-05-07 07:15 33.94812 -118.41096 95 ft 10 kts 83°
2026-05-07 07:15 33.94820 -118.41017 97 ft 9 kts 83°
2026-05-07 07:15 33.94827 -118.40940 96 ft 9 kts 83°
2026-05-07 07:15 33.94803 -118.40884 95 ft 8 kts 160°
2026-05-07 07:16 33.94757 -118.40847 93 ft 8 kts 107°
2026-05-07 07:16 33.94761 -118.40783 97 ft 7 kts 81°
2026-05-07 07:16 33.94769 -118.40723 93 ft 8 kts 82°
2026-05-07 07:16 33.94778 -118.40633 93 ft 11 kts 83°
2026-05-07 07:17 33.94776 -118.40587 93 ft 6 kts 116°
2026-05-07 07:17 33.94735 -118.40565 95 ft 3 kts 158°
2026-05-07 07:17 33.94729 -118.40561 93 ft 0 kts 157°
2026-05-07 07:18 33.94711 -118.40546 93 ft 1 kts 138°
2026-05-07 07:18 33.94707 -118.40537 94 ft 1 kts 115°
2026-05-07 07:18 33.94703 -118.40521 96 ft 4 kts 108°
2026-05-07 07:19 33.94696 -118.40499 94 ft 1 kts 111°
2026-05-07 07:19 33.94695 -118.40497 94 ft 0 kts 111°